Powrót do katalogu

THOR ABLESTAR DEB

AktywnyPO
NORAD 3810·DEBRIS·🇺🇸 United States

Wystrzelony Aug 13, 1965 z Vandenberg Space Force Base

Loading…

Następne Przeloty (najbliższe 24 godziny)

TLE

ŚwieżeSource: Space-Track

Epoka: Sep 13, 2026, 22:30 UTC

1 03810U 65065P   26256.93770979  .00000436  00000-0  63892-3 0  9990
2 03810  90.0035 216.0555 0063744  32.2089  31.1128 13.52269024270877

Śledź THOR ABLESTAR DEB w czasie rzeczywistym z AllMySat

Download on the App Store